TimeCDT,TemperatureF,Dew PointF,Humidity,Sea Level PressureIn,VisibilityMPH,Wind Direction,Wind SpeedMPH,Gust SpeedMPH,PrecipitationIn,Events,Conditions,WindDirDegrees,DateUTC
12:53 AM,32.0,28.0,85,29.94,10.0,NW,5.8,-,N/A,,Clear,320,2013-10-23 05:53:00
1:53 AM,30.0,27.0,88,29.94,10.0,NW,4.6,-,N/A,,Clear,320,2013-10-23 06:53:00
2:53 AM,30.0,27.0,88,29.94,10.0,NW,5.8,-,N/A,,Clear,320,2013-10-23 07:53:00
3:53 AM,28.9,26.1,89,29.94,10.0,NW,4.6,-,N/A,,Clear,320,2013-10-23 08:53:00
4:53 AM,30.0,27.0,88,29.94,10.0,NW,4.6,-,N/A,,Overcast,310,2013-10-23 09:53:00
5:53 AM,30.9,27.0,85,29.94,10.0,NW,6.9,-,N/A,,Overcast,310,2013-10-23 10:53:00
6:53 AM,30.0,26.1,85,29.95,10.0,WNW,5.8,-,N/A,,Partly Cloudy,300,2013-10-23 11:53:00
7:53 AM,30.0,28.0,92,29.96,10.0,West,4.6,-,N/A,,Clear,270,2013-10-23 12:53:00
8:53 AM,35.1,30.0,82,29.97,10.0,WNW,6.9,-,N/A,,Mostly Cloudy,300,2013-10-23 13:53:00
9:53 AM,39.0,28.9,67,29.97,10.0,NW,10.4,-,N/A,,Clear,310,2013-10-23 14:53:00
10:53 AM,39.9,24.1,53,29.97,10.0,WNW,10.4,20.7,N/A,,Mostly Cloudy,300,2013-10-23 15:53:00
11:53 AM,39.9,21.9,49,29.96,10.0,WNW,10.4,-,N/A,,Overcast,300,2013-10-23 16:53:00
12:53 PM,43.0,23.0,45,29.95,10.0,West,13.8,21.9,N/A,,Scattered Clouds,280,2013-10-23 17:53:00
1:53 PM,41.0,19.9,43,29.94,10.0,West,9.2,-,N/A,,Mostly Cloudy,280,2013-10-23 18:53:00
2:53 PM,42.1,19.0,40,29.94,10.0,WNW,10.4,19.6,N/A,,Mostly Cloudy,290,2013-10-23 19:53:00
3:53 PM,42.1,21.0,43,29.95,10.0,West,10.4,19.6,N/A,,Overcast,280,2013-10-23 20:53:00
4:53 PM,42.1,21.0,43,29.95,10.0,West,12.7,-,N/A,,Overcast,280,2013-10-23 21:53:00
5:53 PM,39.9,23.0,51,29.96,10.0,West,8.1,-,N/A,,Overcast,280,2013-10-23 22:53:00
6:53 PM,39.0,26.1,60,29.97,10.0,WNW,6.9,-,N/A,,Overcast,290,2013-10-23 23:53:00
7:53 PM,37.9,26.1,62,29.98,10.0,WNW,6.9,-,N/A,,Overcast,290,2013-10-24 00:53:00
8:53 PM,37.0,27.0,67,29.99,10.0,West,6.9,-,N/A,,Overcast,280,2013-10-24 01:53:00
9:53 PM,37.0,28.0,70,29.99,10.0,West,8.1,-,N/A,,Overcast,280,2013-10-24 02:53:00
10:53 PM,36.0,28.9,76,29.99,10.0,West,5.8,-,N/A,,Overcast,280,2013-10-24 03:53:00
11:53 PM,36.0,28.9,76,29.99,10.0,WNW,5.8,-,N/A,,Overcast,290,2013-10-24 04:53:00